Hourly Data Report for September 17, 2017

All times are specified in Local Standard Time (LST). Add 1 hour to adjust for Daylight Saving Time where and when it is observed.

MONCTON INTL A
NEW BRUNSWICK

46°06'44.000" N
64°40'43.000" W
70.70 m
8103201
71705
YQM

Download Data

Hourly Data (September 2017)
Hourly Data Report for September 17, 2017
Temp Definition
°C
Dew Point Temp Definition
°C
Rel Hum Definition
%
Wind Dir Definition
10's deg

Wind Spd Definition
km/h
Visibility Definition
km
Stn Press Definition
kPa
Hmdx Definition


Wind Chill Definition


Weather Definition


TIME
00:00 Legend Double Dagger 13.5 11.8 90 2 12 24.1 101.36     LegendNANA
01:00 Legend Double Dagger 13.8 11.8 88 5 8 24.1 101.38     Rain Showers
02:00 Legend Double Dagger 12.4 11.6 95 2 9 24.1 101.34     Mostly Cloudy
03:00 Legend Double Dagger 13.5 11.9 90 4 11 24.1 101.29     LegendNANA
04:00 Legend Double Dagger 13.5 12.0 91 7 8 24.1 101.30     LegendNANA
05:00 Legend Double Dagger 13.5 12.0 91 4 7 24.1 101.33     Cloudy
06:00 Legend Double Dagger 13.0 11.7 91 4 6 24.1 101.36     LegendNANA
07:00 Legend Double Dagger 13.7 12.4 92 3 5 24.1 101.42     LegendNANA
08:00 Legend Double Dagger 14.7 12.5 87 4 10 24.1 101.45     Cloudy
09:00 Legend Double Dagger 15.5 12.9 85 9 10 24.1 101.43     LegendNANA
10:00 Legend Double Dagger 15.6 13.4 87 9 7 24.1 101.43     LegendNANA
11:00 Legend Double Dagger 16.5 13.9 85 12 12 24.1 101.37     Cloudy
12:00 Legend Double Dagger 16.9 14.3 84 13 10 24.1 101.33     LegendNANA
13:00 Legend Double Dagger 17.2 14.7 85 9 4 24.1 101.31     LegendNANA
14:00 Legend Double Dagger 17.5 15.1 85 8 4 24.1 101.29     Cloudy
15:00 Legend Double Dagger 18.6 15.4 81 15 4 24.1 101.24     LegendNANA
16:00 Legend Double Dagger 19.2 15.9 81 12 5 24.1 101.24     LegendNANA
17:00 Legend Double Dagger 19.2 16.4 84 10 7 24.1 101.23     Cloudy
18:00 Legend Double Dagger 18.2 16.3 89 6 7 24.1 101.26     LegendNANA
19:00 Legend Double Dagger 17.4 16.1 92 11 9 24.1 101.28     LegendNANA
20:00 Legend Double Dagger 16.4 15.7 95 9 10 24.1 101.31     Cloudy
21:00 Legend Double Dagger 16.4 16.0 97 12 14 4.8 101.34     Fog
22:00 Legend Double Dagger 16.1 15.7 98 9 7 1.6 101.35     Fog
23:00 Legend Double Dagger 15.7 15.4 98 14 12 1.2 101.35     Fog

Notes on Data Quality.

Legend

  • E = Estimated
  • M = Missing
  • NA = Not Available
  • ‡ = Partner data that is not subject to review by the National Climate Archives
Date modified: